This is the latest recevied weather packets stored in our database for station/object KB0Y. If no packets are shown the sender has not sent any weather packets the latest 10 day(s).
| Time | Temp. | Humidity | Pressure | Rain* | Wind** | Luminosity | Snow |
|---|---|---|---|---|---|---|---|
| 1778102855 | 31.67° C | 53% | 1018.9 hPa | 0 mm | - | 501 W/m² | - |
| 1778102551 | 31.67° C | 52% | 1018.6 hPa | 0 mm | - | 508 W/m² | - |
| 1778102246 | 31.67° C | 54% | 1018.9 hPa | 0 mm | - | 510 W/m² | - |
| 1778101942 | 31.67° C | 54% | 1018.9 hPa | 0 mm | - | 510 W/m² | - |
| 1778101640 | 31.67° C | 53% | 1018.9 hPa | 0 mm | - | 523 W/m² | - |
| 1778101336 | 31.67° C | 53% | 1018.6 hPa | 0 mm | - | 527 W/m² | - |
| 1778101034 | 31.67° C | 55% | 1018.9 hPa | 0 mm | - | 536 W/m² | - |
| 1778100728 | 31.67° C | 55% | 1018.6 hPa | 0 mm | - | 542 W/m² | - |
| 1778100426 | 31.67° C | 54% | 1018.9 hPa | 0 mm | - | 539 W/m² | - |
| 1778100123 | 31.67° C | 54% | 1018.6 hPa | 0 mm | - | 553 W/m² | - |
| 1778099821 | 31.67° C | 55% | 1018.9 hPa | 0 mm | - | 557 W/m² | - |
| 1778099518 | 31.67° C | 56% | 1018.9 hPa | 0 mm | - | 563 W/m² | - |
| 1778099216 | 31.67° C | 57% | 1018.9 hPa | 0 mm | - | 563 W/m² | - |
| 1778098911 | 31.67° C | 57% | 1018.9 hPa | 0 mm | - | 569 W/m² | - |
| 1778098609 | 31.67° C | 57% | 1018.9 hPa | 0 mm | - | 149 W/m² | - |
| 1778098305 | 31.67° C | 56% | 1019.3 hPa | 0 mm | - | 595 W/m² | - |
| 1778098002 | 31.67° C | 58% | 1019.3 hPa | 0 mm | - | 600 W/m² | - |
| 1778097699 | 31.67° C | 57% | 1019.3 hPa | 0 mm | - | 541 W/m² | - |
| 1778097395 | 31.67° C | 58% | 1019.3 hPa | 0 mm | - | 608 W/m² | - |
| 1778097091 | 31.67° C | 57% | 1019.3 hPa | 0 mm | - | 591 W/m² | - |
| 1778096789 | 31.67° C | 57% | 1018.9 hPa | 0 mm | - | 416 W/m² | - |
| 1778096485 | 31.11° C | 60% | 1018.9 hPa | 0 mm | - | 616 W/m² | - |
| 1778096183 | 31.11° C | 59% | 1019.3 hPa | 0 mm | - | 633 W/m² | - |
| 1778095880 | 31.11° C | 60% | 1019.3 hPa | 0 mm | - | 615 W/m² | - |
| 1778095577 | 31.11° C | 59% | 1019.6 hPa | 0 mm | - | 599 W/m² | - |
* Rain latest hour (hover to see other rain measurements)
** Current wind speed in m/s (hover to see current wind gust speed)